[[{"header":{"parameterUnit":"m.s-1","parameterCategory":1,"la1":30.2991,"la2":30.254,"lo1":-89.0895,"lo2":-89.0444,"dy":0.0017,"dx":0.0017,"nx":28,"ny":28,"refTime":"2024-03-03T03:00:00:Z","depth":0,"parameterNumber":2,"parameterNumberName":"U-component_of_WINDS"},"data":[0,0,0,0,0,0,0,0,0,0,0,0,0,0,0,0,0,0,0,0,0,0,0,0,0,0,0,0,0,0,0,0,0,0,0,0,0,0,0,0,0,0,0,0,0,0,0,0,0,0,0,0,0,0,0,0,0,0,-4.3855,-4.3856,0,-4.3898,-4.3898,-4.3899,-4.3839,-4.3837,-4.3835,-4.3833,-4.3875,-4.3878,-4.3881,0,0,0,0,0,0,0,0,0,0,0,0,0,-4.3724,-4.3726,-4.3855,-4.3856,-4.3856,-4.3898,-4.3898,-4.3899,-4.384,-4.3837,-4.3835,-4.3832,-4.3874,-4.3877,-4.3881,0,0,0,0,0,0,0,0,0,0,0,0,0,-4.3775,-4.3727,-4.3855,-4.3832,-4.383,-4.3897,-4.3898,-4.3899,-4.384,-4.3837,-4.3834,-4.3831,-4.3873,-4.3877,-4.3882,-4.3973,0,0,-4.3896,-4.3898,0,0,0,0,0,0,0,0,-4.3772,-4.378,-4.3835,-4.3834,-4.3832,-4.386,-4.3867,-4.3924,-4.3841,-4.3836,-4.3833,-4.3829,-4.3872,-4.3877,-4.3892,-4.3975,-4.3977,-4.3896,-4.3899,-4.3901,-4.3902,0,0,0,0,0,0,0,-4.3768,-4.3778,-4.3872,-4.3836,-4.3834,-4.3819,-4.3823,-4.3877,-4.3871,-4.3837,-4.3832,-4.3838,-4.3871,-4.3887,-4.3892,-4.3977,-4.3896,-4.39,-4.3903,-4.3905,-4.414,-4.4143,0,0,0,0,0,0,-4.3768,-4.3775,-4.3871,-4.3873,-4.3794,-4.3824,-4.3829,-4.3854,-4.3871,-4.387,-4.3841,-4.3835,-4.3881,-4.3887,-4.3893,-4.4002,-4.3901,-4.3905,-4.3908,-4.4136,-4.4141,-4.4144,0,0,0,0,0,0,-4.3765,-4.3777,-4.3869,-4.3823,-4.3834,-4.383,-4.3859,-4.3857,-4.3873,-4.3874,-4.3873,-4.3859,-4.3879,-4.3887,-4.3954,-4.4002,-4.3907,-4.3911,-4.4132,-4.4138,-4.4143,-4.4219,0,0,0,0,0,0,-4.3762,-4.3776,-4.3811,-4.3824,-4.3836,-4.3929,-4.3862,-4.386,-4.3881,-4.3874,-4.389,-4.389,-4.3877,-4.3948,-4.3959,-4.4007,-4.3915,-4.4128,-4.4135,-4.4141,-4.4212,-4.4227,-4.4239,0,0,0,0,0,-4.3757,-4.383,-4.3813,-4.3825,-4.3879,-4.3932,-4.3939,-4.3923,-4.3885,-4.392,-4.3921,-4.3889,-4.3996,-4.3955,-4.3967,-4.4017,-4.4125,-4.4133,-4.414,-4.4207,-4.4224,-4.4238,0,0,0,0,0,0,-4.3821,-4.3831,-4.3812,-4.3891,-4.3912,-4.3922,-4.3965,-4.3941,-4.3972,-4.3964,-4.3942,-4.3947,-4.4019,-4.4025,-4.3979,-4.4108,-4.4054,-4.4065,-4.41,-4.4117,-4.413,-4.4126,-4.3919,0,0,0,0,0,-4.3844,-4.3886,-4.3893,-4.3963,-4.3974,-4.3968,-4.399,-4.3977,-4.3996,-4.4004,-4.401,-4.403,-4.4068,-4.4093,-4.4128,-4.4214,-4.4217,-4.4255,-4.4268,-4.4279,-4.4288,-4.4335,-4.4352,-4.417,-4.417,-4.417,0,0,-4.3892,-4.3904,-4.3931,-4.3976,-4.3989,-4.4034,-4.3975,-4.4024,-4.4056,-4.4011,-4.4075,-4.4081,-4.4102,-4.4179,-4.4213,-4.4186,-4.4339,-4.4289,-4.4298,-4.43,-4.4344,-4.4362,-4.4377,-4.4175,-4.4174,-4.4174,0,0,-4.4003,-4.4016,-4.4075,-4.4091,-4.4113,-4.411,-4.4124,-4.4139,-4.4141,-4.4206,-4.4173,-4.4212,-4.4278,-4.4294,-4.4311,-4.4432,-4.4404,-4.4444,-4.4511,-4.4558,-4.4572,-4.4584,-4.4627,-4.4643,-4.4453,-4.4454,-4.4454,0,-4.4059,-4.4124,-4.4108,-4.416,-4.4181,-4.4144,-4.4205,-4.4221,-4.4253,-4.4268,-4.4239,-4.4322,-4.4333,-4.4414,-4.4444,-4.446,-4.4475,-4.4441,-4.4571,-4.4584,-4.4595,-4.4635,-4.4652,-4.4458,-4.4458,-4.4457,-4.4457,0,-4.4193,-4.4239,-4.4285,-4.4319,-4.4345,-4.4401,-4.4394,-4.4422,-4.4408,-4.4408,-4.4474,-4.4488,-4.4525,-4.4544,-4.4529,-4.4624,-4.4607,-4.4575,-4.452,-4.4617,-4.4655,-4.467,-4.4465,-4.4463,-4.4462,-4.4461,0,0,-4.4341,-4.4368,-4.4384,-4.44,-4.4424,-4.4459,-4.4514,-4.4552,-4.4577,-4.4602,-4.4647,-4.4706,-4.4677,-4.4697,-4.4684,-4.4725,-4.482,-4.4688,-4.4688,-4.4711,-4.4925,-4.4948,-4.4966,-4.4803,-4.4806,-4.4808,-4.4923,0,-4.445,-4.4545,-4.4534,-4.4625,-4.4668,-4.4636,-4.4684,-4.4704,-4.4706,-4.4743,-4.4745,-4.4787,-4.4746,-4.4758,-4.4797,-4.48,-4.4862,-4.4792,-4.4844,-4.4846,-4.4838,-4.4986,-4.5009,-4.5117,-4.4938,-4.494,-4.4942,0,-4.4589,-4.4621,-4.4717,-4.4736,-4.4753,-4.4797,-4.4831,-4.4867,-4.489,-4.4889,-4.4913,-4.4894,-4.495,-4.4897,-4.4973,-4.4926,-4.4947,-4.4953,-4.4956,-4.4959,-4.4898,-4.4991,-4.5151,-4.5166,-4.4965,-4.4963,-4.4962,0,-4.4687,-4.4753,-4.4819,-4.4834,-4.4858,-4.4889,-4.4901,-4.492,-4.4945,-4.4976,-4.4991,-4.5028,-4.5048,-4.5077,-4.5069,-4.5031,-4.5148,-4.5094,-4.5148,-4.5149,-4.5172,-4.517,-4.5336,-4.5189,-4.5189,-4.5189,-4.5188,0,-4.4809,-4.4868,-4.4863,-4.4903,-4.497,-4.4958,-4.5024,-4.5031,-4.505,-4.5091,-4.5066,-4.5106,-4.5094,-4.5133,-4.5128,-4.5192,-4.5202,-4.5202,-4.5199,-4.5203,-4.5203,-4.5215,-4.5207,-4.5193,-4.5192,-4.5191,-4.519,0,-4.4927,-4.4926,-4.4996,-4.5014,-4.502,-4.5068,-4.5084,-4.5122,-4.5124,-4.5177,-4.5189,-4.5192,-4.5237,-4.5233,-4.5283,-4.5279,-4.5359,-4.5349,-4.5351,-4.5348,-4.5403,-4.5397,-4.558,-4.5604,-4.5443,-4.5445,-4.5446,0,-4.5004,-4.5049,-4.5073,-4.51,-4.5114,-4.5157,-4.5182,-4.5173,-4.52,-4.5232,-4.5266,-4.531,-4.5343,-4.5418,-4.5424,-4.5463,-4.5452,-4.5514,-4.5457,-4.546,-4.5451,-4.5448,-4.5452,-4.5524,-4.5525,-4.5527,-4.5528,0,-4.514,-4.5138,-4.5176,-4.5214,-4.5246,-4.5275,-4.5302,-4.5326,-4.5319,-4.5352,-4.5398,-4.5425,-4.5478,-4.5521,-4.5559,-4.557,-4.5548,-4.5547,-4.5561,-4.5564,-4.5563,-4.5564,-4.538,-4.5541,-4.554,-4.5539,-4.5538,-4.5538,-4.5239,-4.5278,-4.5302,-4.5345,-4.5365,-4.5392,-4.5429,-4.5437,-4.5476,-4.5518,-4.5511,-4.5564,-4.5588,-4.5636,-4.5652,-4.5693,-4.5671,-4.5692,-4.5697,-4.5702,-4.5707,-4.5559,-4.57,-4.57,-4.5699,-4.5699,-4.5699,0,-4.5373,-4.5388,-4.5428,-4.5467,-4.5502,-4.5481,-4.551,-4.554,-4.5587,-4.5612,-4.5647,-4.5701,-4.5744,-4.5755,-4.5796,-4.5827,-4.5818,-4.5838,-4.5834,-4.5838,-4.5725,-4.5708,-4.5844,-4.5844,-4.5844,-4.5844,-4.5844,-4.5844,-4.5446,-4.5512,-4.5514,-4.559,-4.5604,-4.5655,-4.5674,-4.5699,-4.5719,-4.5781,-4.5817,-4.5824,-4.5844,-4.5887,-4.5926,-4.5928,-4.5943,-4.5967,-4.5965,-4.586,-4.5845,-4.5831,-4.5815,-4.5971,-4.5971,-4.6074,-4.6075,-4.6075]},{"header":{"parameterUnit":"m.s-1","parameterCategory":1,"la1":30.2991,"la2":30.254,"lo1":-89.0895,"lo2":-89.0444,"dy":0.0017,"dx":0.0017,"nx":28,"ny":28,"refTime":"2024-03-03T03:00:00:Z","depth":0,"parameterNumber":3,"parameterNumberName":"V-component_of_WINDS"},"data":[0,0,0,0,0,0,0,0,0,0,0,0,0,0,0,0,0,0,0,0,0,0,0,0,0,0,0,0,0,0,0,0,0,0,0,0,0,0,0,0,0,0,0,0,0,0,0,0,0,0,0,0,0,0,0,0,0,0,1.8425,1.8425,0,1.847,1.8471,1.8471,1.8496,1.8496,1.8496,1.8496,1.854,1.8541,1.8542,0,0,0,0,0,0,0,0,0,0,0,0,0,1.8358,1.8359,1.8425,1.8425,1.8426,1.847,1.8471,1.8471,1.8496,1.8496,1.8496,1.8496,1.854,1.8541,1.8542,0,0,0,0,0,0,0,0,0,0,0,0,0,1.8394,1.836,1.8424,1.8444,1.8446,1.847,1.8471,1.8472,1.8496,1.8496,1.8496,1.8496,1.8539,1.8541,1.8542,1.855,0,0,1.8547,1.8548,0,0,0,0,0,0,0,0,1.8392,1.8396,1.844,1.8442,1.8445,1.8478,1.8464,1.8498,1.8496,1.8477,1.8496,1.8497,1.8519,1.8522,1.8531,1.8552,1.8554,1.8548,1.8549,1.8549,1.855,0,0,0,0,0,0,0,1.8389,1.8394,1.8443,1.8441,1.8444,1.845,1.8455,1.847,1.8497,1.8479,1.8481,1.8486,1.852,1.8529,1.8532,1.8555,1.8548,1.8549,1.855,1.8551,1.8589,1.8589,0,0,0,0,0,0,1.8384,1.8392,1.8441,1.8444,1.8418,1.8451,1.8457,1.8467,1.8497,1.8501,1.8486,1.8487,1.8526,1.853,1.8533,1.8547,1.8549,1.8551,1.8552,1.8589,1.8589,1.8589,0,0,0,0,0,0,1.8382,1.8388,1.8439,1.8419,1.8426,1.8452,1.8463,1.8468,1.8477,1.8502,1.8507,1.849,1.8526,1.8531,1.8547,1.8549,1.8552,1.8553,1.8589,1.8589,1.8589,1.8572,0,0,0,0,0,0,1.838,1.8387,1.839,1.8419,1.8427,1.8452,1.8463,1.8469,1.848,1.8482,1.8507,1.8511,1.8527,1.8544,1.8549,1.8551,1.8554,1.8589,1.8589,1.8589,1.8573,1.8572,1.8571,0,0,0,0,0,1.8378,1.8382,1.8391,1.8396,1.8431,1.8452,1.8457,1.8475,1.848,1.8483,1.85,1.851,1.8548,1.8546,1.8551,1.8554,1.8589,1.8589,1.8589,1.8573,1.8572,1.8571,0,0,0,0,0,0,1.8352,1.8386,1.8396,1.8409,1.8428,1.8456,1.8461,1.8473,1.849,1.849,1.8512,1.8518,1.8532,1.8544,1.8541,1.8565,1.857,1.8571,1.8556,1.8555,1.8554,1.8551,1.8556,0,0,0,0,0,1.8348,1.8363,1.8392,1.8401,1.841,1.8434,1.8444,1.8457,1.8477,1.8484,1.8502,1.852,1.8536,1.8546,1.8562,1.8575,1.8582,1.858,1.8579,1.8578,1.8578,1.8589,1.8589,1.859,1.859,1.859,0,0,1.8339,1.836,1.8368,1.8397,1.8413,1.8428,1.844,1.8455,1.8466,1.8486,1.8503,1.8517,1.8539,1.8554,1.8561,1.8565,1.858,1.8578,1.8577,1.8578,1.8589,1.8589,1.8589,1.859,1.859,1.859,0,0,1.8332,1.8349,1.836,1.8377,1.8401,1.8418,1.8421,1.8448,1.8459,1.8477,1.8493,1.8507,1.8533,1.8549,1.856,1.8563,1.8574,1.8567,1.8562,1.8572,1.8572,1.8572,1.8574,1.8575,1.8568,1.8568,1.8568,0,1.8318,1.8342,1.8364,1.8379,1.8392,1.8413,1.8424,1.8439,1.8467,1.8476,1.8479,1.8516,1.8531,1.8552,1.8553,1.8561,1.8566,1.8564,1.857,1.8571,1.8571,1.8574,1.8574,1.8567,1.8567,1.8567,1.8567,0,1.8325,1.8341,1.8347,1.8376,1.839,1.8403,1.8427,1.8438,1.8451,1.8468,1.8487,1.8507,1.8529,1.8535,1.8546,1.8558,1.8559,1.8566,1.8572,1.857,1.8573,1.8574,1.8566,1.8566,1.8567,1.8567,0,0,1.8299,1.8344,1.8345,1.836,1.8391,1.8404,1.8419,1.8442,1.8452,1.8472,1.8485,1.8509,1.8517,1.853,1.8544,1.8553,1.8556,1.8559,1.856,1.8559,1.8572,1.8567,1.8568,1.8564,1.8564,1.8564,1.8571,0,1.8297,1.8326,1.8348,1.8368,1.8385,1.8407,1.842,1.8441,1.8457,1.8474,1.8491,1.8509,1.8517,1.8525,1.8535,1.8554,1.8559,1.8553,1.8577,1.8578,1.8571,1.8569,1.8563,1.8568,1.8572,1.8572,1.8572,0,1.8298,1.8319,1.8342,1.8374,1.8382,1.8393,1.8418,1.8434,1.8458,1.8469,1.8486,1.8501,1.8519,1.8524,1.8549,1.8544,1.8556,1.8567,1.8567,1.857,1.8575,1.8573,1.857,1.8571,1.8574,1.8574,1.8574,0,1.8279,1.8313,1.8333,1.8344,1.8382,1.839,1.8406,1.843,1.8444,1.8465,1.8475,1.8497,1.851,1.8527,1.8548,1.8549,1.8572,1.8578,1.8583,1.8582,1.8586,1.8585,1.8586,1.8592,1.8592,1.8592,1.8592,0,1.8274,1.8288,1.8325,1.8337,1.8353,1.8379,1.8394,1.8412,1.8434,1.845,1.847,1.8484,1.8511,1.8529,1.8546,1.8565,1.857,1.858,1.8585,1.8579,1.8578,1.8587,1.8587,1.8592,1.8592,1.8592,1.8592,0,1.8256,1.8281,1.8304,1.8339,1.8348,1.8359,1.8389,1.8401,1.842,1.844,1.8446,1.8475,1.8498,1.8521,1.855,1.8562,1.8581,1.8587,1.8573,1.8576,1.858,1.858,1.8586,1.8589,1.8593,1.8592,1.8592,0,1.8251,1.8263,1.83,1.8313,1.8329,1.8349,1.8364,1.839,1.8405,1.8436,1.8445,1.8469,1.849,1.8525,1.8549,1.8572,1.8579,1.858,1.8582,1.8577,1.8581,1.858,1.8582,1.8579,1.8579,1.8578,1.8578,0,1.8241,1.8254,1.8276,1.8303,1.8321,1.8342,1.8365,1.8374,1.8405,1.8421,1.8445,1.8462,1.8494,1.8518,1.8545,1.8561,1.8575,1.8578,1.858,1.8575,1.8567,1.8573,1.8572,1.8577,1.8577,1.8577,1.8577,1.8577,1.823,1.8243,1.8272,1.8296,1.8316,1.8338,1.8353,1.8375,1.8396,1.8425,1.8439,1.8464,1.8491,1.8529,1.8545,1.8565,1.8569,1.8572,1.8573,1.8574,1.8573,1.8564,1.857,1.857,1.857,1.857,1.857,0,1.8222,1.8243,1.8265,1.8298,1.8317,1.8331,1.8358,1.8373,1.8395,1.8419,1.8441,1.847,1.8495,1.8521,1.8548,1.8559,1.8566,1.8565,1.8564,1.8568,1.8567,1.8563,1.8559,1.8559,1.8559,1.8559,1.8559,1.8559,1.822,1.8243,1.826,1.8294,1.8314,1.834,1.8354,1.8375,1.8395,1.8427,1.8449,1.8467,1.8493,1.8522,1.8546,1.8553,1.8562,1.8559,1.8569,1.8567,1.8568,1.8569,1.8565,1.8561,1.8561,1.8568,1.8568,1.8568]}]]